Home > Weather > Frauenfeld > Past weeks

Flag for Switzerland Weather for the Past 2 Weeks in Frauenfeld, Thurgau, Switzerland

Now
46 °F

Scattered showers. Passing clouds.


Feels Like: 41 °F
Forecast: 34 / 39 °F
Wind: 13 mph from Southwest

Location: Zurich-Kloten

Current Time: Feb 9, 2016 at 1:35:45 AM

Latest Report: Feb 9, 2016 at 12:50 AM


Visibility: N/A

Pressure: 29.86 "Hg

Humidity: 76%

Dew point: 39 °F

Location of FrauenfeldLocation

Historic Weather in Frauenfeld — Graph

°F

Frauenfeld Temperature Yesterday

Maximum temperature yesterday: 54 °F (at 2:50 PM)
Minimum temperature yesterday: 36 °F (at 3:50 AM)
Average temperature yesterday: 46 °F

High & Low Weather Summary for the Past Weeks

 TemperatureHumidityPressure
High55 °F (Feb 1, 11:20 AM)100% (Jan 25, 1:50 AM)30.51 "Hg (Jan 25, 1:50 AM)
Low28 °F (Jan 25, 5:20 AM)47% (Jan 25, 2:50 PM)29.62 "Hg (Feb 7, 9:20 AM)
Average43 °F81%30.20 "Hg
* Reported Jan 25 12:20 AM — Feb 9 12:20 AM, Frauenfeld, Weather by CustomWeather, © 2016

Note: Actual official high and low records may vary slightly from our data, if they occured in-between our weather recording intervals... More about our weather records

Advertising

Frauenfeld Weather History for the Previous 24 Hours

 ConditionsComfort  
Time TempWeatherWind HumidityBarometerVisibility
12:20 AM
Tue, Feb 9
46 °FScattered showers. Passing clouds.15 mph76%29.86 "HgN/A
11:20 PM
Mon, Feb 8
48 °FScattered showers. Passing clouds.22 mph71%29.83 "HgN/A
10:50 PM46 °FSprinkles. Passing clouds.15 mph82%29.83 "HgN/A
10:20 PM48 °FSprinkles. Passing clouds.15 mph76%29.83 "HgN/A
9:50 PM48 °FScattered showers. Passing clouds.14 mph76%29.83 "HgN/A
9:20 PM48 °FScattered showers. Partly cloudy.18 mph71%29.80 "HgN/A
8:50 PM48 °FScattered showers. Partly cloudy.24 mph71%29.83 "HgN/A
8:20 PM46 °FSprinkles. Partly cloudy.18 mph82%29.80 "HgN/A
7:50 PM50 °FSprinkles. Partly cloudy.22 mph71%29.80 "Hg5 mi
7:20 PM50 °FScattered showers. Partly cloudy.24 mph67%29.77 "HgN/A
6:50 PM50 °FScattered showers. Partly cloudy.26 mph67%29.77 "HgN/A
6:20 PM50 °FScattered showers. Partly cloudy.28 mph67%29.74 "HgN/A
5:50 PM50 °FPartly cloudy.25 mph71%29.74 "HgN/A
5:20 PM50 °FBroken clouds.25 mph71%29.71 "HgN/A
4:50 PM50 °FScattered showers. Broken clouds.22 mph67%29.71 "HgN/A
4:20 PM52 °FBroken clouds.24 mph62%29.68 "HgN/A
3:50 PM54 °FPartly sunny.21 mph54%29.68 "HgN/A
3:20 PM54 °FBroken clouds.21 mph58%29.68 "HgN/A
2:50 PM54 °FPartly sunny.23 mph54%29.71 "HgN/A
2:20 PM52 °FPartly sunny.21 mph54%29.71 "HgN/A
1:50 PM52 °FPartly sunny.20 mph54%29.68 "HgN/A
1:20 PM52 °FBroken clouds.23 mph54%29.71 "HgN/A
12:50 PM50 °FBroken clouds.20 mph58%29.71 "HgN/A
12:20 PM48 °FSunny.17 mph62%29.71 "Hg10 mi
11:50 AM48 °FSunny.9 mph58%29.74 "Hg10 mi
11:20 AM46 °FSunny.12 mph62%29.74 "Hg10 mi
10:50 AM45 °FSunny.13 mph61%29.74 "Hg10 mi
10:20 AM45 °FBroken clouds.8 mph61%29.80 "HgN/A
9:50 AM43 °FBroken clouds.9 mph66%29.80 "HgN/A
9:20 AM41 °FPartly sunny.10 mph70%29.80 "HgN/A
8:50 AM43 °FPartly sunny.9 mph61%29.83 "HgN/A
8:20 AM43 °FPartly sunny.8 mph61%29.83 "HgN/A
7:50 AM41 °FPartly sunny.7 mph66%29.83 "HgN/A
7:20 AM41 °FPartly cloudy.9 mph66%29.83 "HgN/A
6:50 AM41 °FPartly cloudy.10 mph66%29.83 "HgN/A
6:20 AM41 °FPassing clouds.7 mph66%29.83 "HgN/A
5:50 AM39 °FPassing clouds.6 mph75%29.83 "HgN/A
5:20 AM39 °FPassing clouds.9 mph75%29.86 "HgN/A
4:20 AM37 °FClear.9 mph81%29.86 "Hg10 mi
3:50 AM36 °FPassing clouds.9 mph87%29.89 "HgN/A
3:20 AM37 °FPassing clouds.9 mph81%29.89 "HgN/A
2:50 AM37 °FClear.7 mph81%29.89 "Hg10 mi
2:20 AM37 °FClear.7 mph81%29.89 "Hg10 mi
1:50 AM41 °FClear.8 mph70%29.92 "Hg10 mi
Weather by CustomWeather, © 2016

See weather overviewHow to use our weather pages